Wind_Speed
10 8 13 16 21 21 23 26 18 3 5 8 15 23 29 31 32 30 30 26 26 23 31 37 39 38 34 30 40 29 22 17 11 9 12 16 22 22 24 22 25 27 29
12 7 11 15 18 20 22 24 25 9 4 6 6 12 19 31 34 31 32 26 27 29 37 42 42 39 36 32 39 25 22 17 14 9 13 20 22 19 21 23 25 27 26
16 10 11 13 16 18 19 22 24 16 8 7 1 7 15 24 31 32 33 31 31 36 42 44 44 39 37 35 37 25 19 15 12 7 12 16 21 17 17 19 22 24 24
20 15 13 11 13 15 17 20 21 22 9 6 2 10 16 23 29 31 34 34 38 40 44 45 42 40 38 36 33 25 19 13 7 7 10 17 19 16 19 17 17 17 17
23 22 19 11 13 12 15 17 19 21 9 7 4 12 15 20 21 23 30 35 38 44 45 46 41 43 37 36 27 26 13 11 8 13 12 19 17 16 17 17 15 17 15
28 25 19 16 11 11 13 14 15 16 16 4 3 13 18 20 24 26 27 33 39 44 46 47 42 41 37 37 31 24 13 9 7 12 12 19 17 17 16 12 11 18 13
36 30 27 22 15 12 11 13 12 14 15 4 0 6 14 16 25 27 28 31 39 44 48 47 42 40 40 36 30 21 14 10 6 8 9 13 21 17 13 11 13 10 10
40 36 32 25 24 19 14 11 9 12 12 10 2 6 11 15 19 25 32 35 37 41 46 43 40 41 39 35 29 21 14 9 7 10 10 10 23 20 9 12 12 10 11
39 40 35 32 27 26 21 17 11 7 8 8 3 10 15 18 17 28 33 36 38 39 41 36 35 37 36 34 28 23 19 11 9 13 13 12 21 22 13 14 14 12 12
35 38 40 38 34 31 27 23 17 12 6 2 3 8 16 21 26 31 32 34 37 37 38 36 36 34 32 31 28 25 21 17 12 10 12 13 15 23 19 18 16 13 13
33 33 38 40 43 38 36 30 24 18 14 4 2 7 16 23 30 32 35 35 36 38 37 34 33 33 30 31 32 28 23 20 16 12 13 14 15 22 25 21 18 17 15
34 33 34 36 39 43 41 37 32 28 19 11 7 9 17 22 28 33 37 37 36 38 33 31 29 28 26 22 23 23 21 19 17 17 14 15 13 24 26 26 23 22 20
37 38 36 35 37 41 44 42 37 34 27 20 15 18 17 24 29 34 36 39 43 41 37 32 30 24 21 22 25 23 21 20 18 16 16 20 19 19 24 28 27 28 27
40 41 41 39 39 41 43 43 44 41 37 30 25 25 23 23 28 34 40 43 42 44 39 35 34 29 27 23 24 23 24 21 20 19 23 23 18 21 25 29 28 30 33
40 41 42 43 44 44 44 45 46 46 43 39 33 30 26 26 25 37 43 46 45 43 42 36 33 30 30 28 27 25 26 27 26 24 23 23 22 16 26 32 32 32 35
38 41 43 43 45 47 48 47 48 51 51 47 39 35 33 32 28 29 39 44 46 45 40 36 34 33 34 33 33 30 31 32 31 29 30 29 27 30 32 35 37 37 36
39 40 40 40 43 47 50 51 51 51 54 52 46 42 38 40 33 34 31 37 47 48 44 40 38 39 36 34 34 34 34 34 36 35 34 33 33 32 35 38 37 37 40
32 33 34 38 44 44 47 52 53 53 53 56 54 50 47 44 44 41 37 36 37 39 44 46 41 39 41 38 34 34 35 37 39 41 38 33 33 36 38 39 39 39 40
36 38 40 41 39 43 48 47 54 57 57 58 60 58 55 51 48 47 45 43 41 37 40 42 43 42 43 43 41 40 40 41 41 42 41 37 33 36 40 42 42 44 46
35 36 35 37 44 45 46 51 53 56 61 62 62 64 63 60 56 54 51 50 49 46 46 45 45 45 47 48 46 46 47 44 44 43 42 45 44 45 47 48 49 48 47
33 36 39 40 43 46 50 53 55 59 60 62 65 66 69 70 65 61 57 56 52 51 49 46 46 42 44 46 44 48 48 47 48 48 46 47 50 51 53 53 51 53 58
29 31 35 40 45 49 55 57 58 60 64 65 66 68 69 72 73 67 64 59 56 52 51 46 49 48 46 47 47 46 45 44 47 50 51 48 56 60 60 67 65 57 62
33 35 39 45 51 53 55 62 63 66 69 70 69 69 71 72 75 74 68 68 63 61 56 52 53 50 51 53 54 53 51 51 52 53 53 58 60 61 64 65 65 66 71
33 35 39 46 43 45 49 49 49 71 75 72 72 72 71 73 73 76 75 70 69 67 61 59 59 59 62 63 64 61 57 56 56 58 59 57 58 60 63 67 69 69 70
33 35 37 39 33 40 48 61 54 61 65 71 72 74 72 72 74 73 79 77 74 72 70 70 71 67 65 65 63 57 59 57 63 64 64 63 59 60 65 68 70 71 70
34 35 37 39 31 36 42 42 49 56 55 59 70 72 70 70 75 74 72 77 77 76 76 73 74 75 72 69 66 69 64 63 64 67 67 68 69 69 71 75 78 79 80
Wind_Direction
292 330 346 0 11 13 10 16 18 47 209 237 249 230 222 217 213 212 199 198 184 188 181 168 167 165 163 164 161 145 152 152 152 101 85 100 114 112 117 111 114 110 108
282 306 338 341 350 9 12 10 15 5 349 315 260 213 210 208 203 202 193 185 181 182 173 165 166 165 163 166 164 152 157 155 155 114 88 120 121 119 120 124 120 117 111
275 276 317 327 343 356 8 10 13 14 13 2 284 187 188 189 192 191 183 179 181 175 168 166 166 165 167 168 168 166 163 165 153 146 109 137 132 131 128 130 131 124 122
267 279 291 316 332 348 357 11 8 20 18 17 61 161 165 167 178 184 180 176 172 171 168 167 167 169 169 170 169 167 166 164 156 170 162 145 146 144 144 137 138 141 136
261 272 283 304 306 333 345 4 5 16 22 14 104 160 177 168 166 171 167 167 167 169 169 168 167 171 169 171 167 172 168 172 144 152 148 150 146 150 157 161 152 151 143
248 262 269 277 280 314 329 349 2 5 26 8 70 151 172 167 163 163 168 165 168 171 171 170 169 173 172 169 172 173 171 172 159 174 174 167 152 146 140 146 171 182 181
244 246 247 260 268 281 302 327 351 0 15 35 98 142 168 171 162 163 171 171 172 173 173 173 173 177 177 181 178 185 198 205 229 193 186 201 186 170 174 166 156 170 188
236 245 237 247 258 268 283 292 326 345 4 33 159 170 160 175 173 171 170 171 177 175 175 174 176 181 183 184 187 201 206 228 248 225 207 204 205 199 196 193 177 180 187
238 241 239 236 244 257 269 279 285 303 350 3 95 176 174 176 185 177 173 175 177 172 175 180 183 187 191 192 190 203 216 243 259 195 205 215 215 209 220 204 198 197 195
239 238 237 239 242 241 252 261 269 269 284 356 1 168 179 183 175 177 175 173 173 175 177 181 187 191 197 201 200 212 225 242 232 206 214 227 224 222 219 207 202 216 225
244 240 239 237 240 244 244 250 258 253 258 248 184 190 190 188 183 180 179 181 184 183 181 183 186 191 200 208 219 221 224 244 238 239 246 245 244 225 221 214 218 225 230
249 245 239 237 238 240 244 246 249 252 249 249 212 213 206 201 198 193 188 185 187 182 189 194 200 202 201 210 222 231 240 233 236 249 263 274 254 225 229 227 229 236 246
247 247 245 240 237 236 237 238 241 245 244 239 224 232 212 213 209 204 198 188 189 193 197 198 198 203 217 226 230 233 224 229 247 264 276 281 276 246 248 237 234 248 250
244 244 245 243 240 239 236 234 235 237 239 231 229 224 217 209 217 216 209 204 204 203 206 206 209 220 231 234 225 216 226 238 248 263 268 267 262 251 248 247 255 255 256
249 245 241 239 240 239 238 235 231 231 232 233 228 230 225 218 218 219 218 216 217 218 220 220 222 229 234 226 223 223 231 240 247 251 256 263 256 247 249 245 255 262 259
248 246 244 241 238 239 238 237 232 227 227 230 226 228 231 223 225 220 220 222 223 219 218 220 231 233 230 226 228 235 240 244 248 252 256 257 257 245 249 251 256 266 265
255 254 248 241 238 238 238 236 236 234 227 226 224 225 229 228 225 224 225 221 221 222 224 227 228 229 229 225 232 241 247 250 252 256 259 258 253 256 255 258 263 268 265
254 255 254 252 243 240 238 238 236 233 236 229 223 223 224 230 230 225 228 223 219 223 226 226 228 228 229 237 243 243 246 250 256 257 257 255 256 255 257 260 264 267 269
256 256 255 254 250 243 241 240 237 236 231 232 229 223 222 227 229 228 228 226 221 225 228 227 230 231 234 240 244 248 255 260 259 259 264 255 257 261 262 263 266 266 269
262 260 257 253 251 248 244 242 238 235 234 231 230 227 224 224 227 228 229 229 226 232 229 230 232 235 237 242 248 251 254 260 260 262 266 271 266 265 267 268 270 272 273
263 263 260 260 258 253 249 245 243 241 237 234 231 227 227 226 224 225 226 229 224 228 230 234 236 241 251 253 259 260 259 262 264 266 269 270 267 267 268 269 268 273 277
266 264 261 259 256 255 254 249 246 243 240 237 235 231 227 227 225 223 224 225 225 223 229 234 239 245 247 253 258 257 259 263 265 266 268 273 280 281 279 276 274 282 283
270 269 269 277 276 266 257 252 251 250 242 238 235 235 234 229 227 224 222 224 225 224 227 233 241 242 245 242 252 257 254 269 266 267 270 266 267 270 271 274 275 281 282
278 282 278 292 274 263 243 239 251 249 243 238 234 234 234 235 229 226 225 224 225 225 229 232 230 244 243 243 246 255 256 265 265 272 268 270 268 269 270 274 278 282 282
284 290 299 307 279 262 255 250 263 256 251 240 236 233 232 235 234 229 226 226 225 227 227 235 237 240 241 245 246 250 258 265 269 273 276 271 270 269 273 276 278 278 277
290 297 300 315 286 274 273 275 266 253 245 236 231 231 230 231 235 233 228 228 231 232 233 238 242 240 242 247 245 249 259 265 267 270 272 275 272 270 272 275 276 274 274
Height
10944 10944 10944 10941 10939 10936 10935 10932 10928 10925 10923 10923 10922 10923 10925 10929 10933 10937 10943 10948 10954 10959 10964 10969 10974 10980 10984 10988 10992 10994 10995 10997 10998 10998 10997 10996 10996 10996 10996 10995 10993 10991 10990
10943 10943 10943 10941 10939 10936 10934 10932 10928 10924 10922 10919 10916 10916 10919 10923 10928 10932 10939 10946 10952 10959 10963 10968 10974 10980 10984 10987 10992 10994 10996 10998 10999 11000 10999 10998 10998 10998 10998 10998 10996 10995 10993
10941 10941 10941 10941 10940 10936 10934 10933 10929 10925 10921 10919 10916 10916 10917 10921 10926 10931 10937 10944 10951 10957 10962 10968 10974 10980 10984 10987 10992 10995 10997 10999 11001 11001 11001 11000 11000 10999 11000 11000 10999 10998 10997
10936 10938 10940 10939 10939 10936 10934 10932 10931 10926 10923 10920 10918 10918 10920 10922 10926 10930 10934 10941 10948 10956 10963 10969 10975 10979 10984 10988 10994 10995 10998 11000 11002 11001 11002 11002 11002 11002 11002 11002 11002 11001 11000
10931 10933 10936 10938 10937 10936 10935 10933 10931 10928 10925 10923 10921 10921 10925 10925 10928 10934 10939 10942 10948 10956 10963 10969 10974 10979 10983 10989 10993 10996 10998 11000 11002 11002 11003 11002 11002 11003 11003 11004 11004 11004 11003
10928 10930 10932 10936 10937 10936 10935 10934 10932 10930 10927 10926 10925 10924 10927 10930 10931 10936 10942 10946 10949 10955 10961 10968 10974 10979 10983 10988 10992 10996 10998 11000 11001 11002 11003 11004 11003 11004 11004 11004 11004 11004 11003
10924 10926 10928 10932 10935 10935 10934 10934 10932 10930 10929 10928 10927 10927 10929 10932 10934 10937 10942 10947 10952 10956 10960 10965 10971 10976 10981 10986 10991 10995 10998 10999 11000 11001 11002 11003 11004 11005 11005 11005 11005 11004 11003
10919 10922 10925 10928 10930 10933 10933 10933 10932 10931 10929 10928 10930 10931 10931 10934 10937 10939 10943 10948 10953 10956 10962 10967 10971 10976 10980 10985 10990 10993 10996 10998 10999 10999 11001 11002 11003 11004 11005 11005 11005 11004 11004
10909 10914 10918 10922 10925 10929 10932 10932 10932 10932 10931 10930 10930 10931 10933 10936 10939 10943 10946 10951 10956 10960 10965 10970 10974 10978 10981 10984 10988 10991 10993 10995 10997 10998 10999 11000 11002 11003 11004 11005 11005 11004 11004
10900 10905 10910 10915 10918 10923 10927 10929 10930 10931 10931 10931 10931 10931 10934 10937 10940 10945 10949 10953 10957 10961 10966 10970 10973 10977 10982 10986 10988 10990 10992 10995 10996 10996 10997 10999 10999 11000 11002 11003 11003 11002 11002
10890 10897 10901 10907 10911 10915 10920 10923 10925 10928 10931 10930 10930 10932 10934 10938 10940 10943 10948 10953 10958 10962 10966 10971 10974 10978 10981 10985 10988 10990 10991 10993 10994 10994 10996 10997 10996 10996 10998 10999 10999 10999 10998
10882 10886 10891 10896 10901 10905 10911 10916 10920 10923 10927 10929 10930 10931 10934 10937 10940 10943 10946 10950 10954 10959 10965 10970 10974 10976 10979 10983 10985 10988 10989 10989 10991 10992 10991 10992 10993 10993 10994 10995 10995 10995 10994
10875 10877 10881 10886 10890 10894 10899 10907 10912 10917 10921 10925 10926 10930 10930 10934 10938 10941 10943 10947 10950 10954 10959 10964 10970 10975 10977 10978 10981 10982 10984 10986 10987 10987 10986 10987 10988 10990 10990 10991 10991 10991 10991
10866 10869 10871 10876 10880 10883 10888 10895 10902 10908 10913 10918 10921 10923 10927 10930 10934 10938 10940 10941 10946 10949 10952 10958 10962 10966 10971 10973 10974 10975 10978 10980 10981 10980 10981 10982 10983 10984 10985 10986 10986 10986 10986
10854 10858 10862 10865 10869 10874 10878 10883 10890 10897 10903 10908 10913 10917 10920 10924 10926 10930 10934 10937 10940 10944 10948 10952 10955 10958 10962 10966 10969 10970 10973 10973 10974 10975 10975 10975 10977 10978 10978 10979 10979 10979 10979
10842 10846 10850 10854 10858 10862 10867 10873 10878 10885 10891 10896 10903 10909 10912 10915 10919 10922 10926 10931 10934 10938 10943 10946 10950 10953 10954 10958 10962 10966 10968 10969 10969 10969 10969 10969 10971 10971 10971 10972 10972 10972 10971
10832 10835 10838 10844 10847 10850 10855 10860 10867 10873 10879 10885 10892 10899 10903 10908 10910 10915 10919 10921 10925 10931 10935 10939 10942 10946 10949 10951 10953 10958 10961 10962 10963 10963 10963 10962 10962 10963 10964 10964 10963 10962 10962
10823 10825 10827 10830 10835 10838 10843 10848 10853 10860 10867 10874 10881 10887 10893 10897 10902 10906 10909 10912 10916 10921 10926 10930 10934 10937 10941 10944 10946 10948 10951 10953 10954 10954 10955 10954 10953 10954 10954 10953 10952 10952 10952
10813 10815 10817 10819 10820 10824 10829 10834 10839 10846 10851 10857 10865 10873 10880 10885 10890 10893 10898 10903 10908 10912 10917 10922 10926 10929 10933 10937 10940 10941 10943 10944 10944 10944 10945 10945 10945 10944 10944 10944 10944 10943 10941
10802 10803 10805 10807 10808 10811 10815 10819 10822 10826 10833 10840 10848 10857 10864 10870 10876 10882 10887 10892 10899 10902 10908 10912 10915 10919 10922 10925 10928 10930 10930 10932 10933 10934 10935 10935 10934 10933 10933 10933 10932 10931 10928
10792 10792 10793 10795 10797 10798 10800 10803 10806 10810 10817 10823 10830 10838 10845 10852 10860 10868 10874 10880 10886 10892 10897 10901 10905 10908 10911 10914 10916 10918 10919 10919 10920 10922 10923 10923 10923 10922 10920 10920 10919 10917 10915
10784 10784 10784 10783 10783 10784 10784 10786 10790 10794 10798 10805 10811 10818 10826 10833 10842 10852 10860 10867 10873 10879 10885 10890 10894 10897 10900 10903 10904 10905 10907 10907 10908 10909 10909 10910 10910 10909 10908 10906 10905 10902 10899
10774 10774 10772 10771 10767 10765 10766 10769 10773 10773 10776 10783 10792 10801 10807 10815 10824 10834 10843 10851 10857 10864 10871 10878 10881 10883 10886 10888 10891 10892 10893 10894 10894 10894 10894 10895 10895 10893 10890 10889 10888 10886 10883
10761 10761 10760 10755 10748 10747 10746 10748 10750 10746 10752 10762 10772 10781 10788 10796 10807 10817 10826 10835 10843 10850 10857 10862 10864 10867 10871 10874 10877 10879 10880 10881 10880 10879 10878 10878 10877 10875 10871 10870 10869 10867 10864
10750 10749 10746 10739 10734 10732 10732 10731 10729 10727 10730 10739 10750 10759 10771 10780 10790 10800 10809 10818 10827 10835 10842 10845 10849 10852 10856 10858 10862 10867 10867 10866 10862 10864 10862 10861 10860 10858 10855 10853 10850 10847 10843
10739 10738 10734 10729 10722 10719 10716 10713 10706 10704 10710 10716 10727 10740 10753 10764 10770 10781 10793 10805 10816 10821 10825 10828 10829 10834 10843 10846 10850 10852 10852 10852 10849 10847 10846 10844 10842 10840 10837 10834 10831 10827 10823